Regional Weather Roundup
Issued by NWS

Home | Current Version | Previous Version | Graphics & Text | Print | Product List | Glossary On
Versions: 1 2 3 4 5 6 7 8 9 10 11 12 13 14 15 16 17 18 19 20 21 22 23 24 25 26 27 28 29 30 31 32 33 34 35 36 37 38 39 40 41 42 43 44 45 46 47 48 49 50
000
ASUS43 KLMK 230702
RWRKY
KENTUCKY REGIONAL WEATHER ROUNDUP
NATIONAL WEATHER SERVICE LOUISVILLE KY
200 AM EST THU FEB 23 2017

NOTE "FAIR" INDICATES FEW OR NO CLOUDS BELOW 12,000 FEET
WITH NO SIGNIFICANT WEATHER AND/OR OBSTRUCTIONS TO VISIBILITY.

KYZ001>023-026-027-061>063-070>075-230800-
WESTERN AND SOUTH CENTRAL KENTUCKY

CITY           SKY/WX    TMP DP  RH WIND       PRES   REMARKS
PADUCAH        MOCLDY    60  54  80 SW5       29.79R
HENDERSON      MOCLDY    55  52  88 S7        29.78S
OWENSBORO      PTCLDY    56  53  90 S6        29.80R
HOPKINSVILLE   PTCLDY    59  57  94 S7        29.81R
BOWLING GREEN  CLEAR     58  55  90 S5        29.82F
GLASGOW        NOT AVBL
$$

KYZ024-025-028>034-038-045-046-053-230800-
NORTH CENTRAL KENTUCKY

CITY           SKY/WX    TMP DP  RH WIND       PRES   REMARKS
LOUISVILLE/SDF PTCLDY    64  54  69 S7        29.79S
LOUISVILLE/LOU CLEAR     62  55  77 S5        29.79S
FORT KNOX      CLEAR     58  56  94 S7        29.79R
$$

KYZ035>037-039>044-047>052-055>060-089>105-230800-
NORTHEAST KENTUCKY

CITY           SKY/WX    TMP DP  RH WIND       PRES   REMARKS
LEXINGTON      PTCLDY    57  53  86 S10       29.83F
COVINGTON      PTCLDY    58  55  90 S7        29.78S
FRANKFORT      MOCLDY    60  53  77 S9        29.79F
$$

KYZ054-064>069-076>088-106>120-230800-
SOUTHEAST KENTUCKY

CITY           SKY/WX    TMP DP  RH WIND       PRES   REMARKS
JACKSON        CLEAR     53  50  89 SW5       29.87F
LONDON         FOG       50  49  96 CALM      29.87F VSB 1/2
SOMERSET       CLEAR     52  52 100 CALM      29.88S
MIDDLESBORO    FOG       46  46 100 CALM      29.90F VSB 1/2
MONTICELLO     SUNNY     50  49  96 W12       29.89
$$




USA.gov is the U.S. government's official web portal to all federal, state and local government web resources and services.